North Windham, CT

6:20 PM EST on February 14, 2016 (GMT -0500)
Windham

Weather History for KIJD - August, 2013

Change the Weather History Date:

Tuesday, August 20, 2013

  Actual Average Record
Temperature  
Mean Temperature 70 °F -  
Max Temperature 84 °F 80 °F 92 °F (1955)
Min Temperature 57 °F 55 °F 41 °F (1953)
Cooling Degree Days 6    
Growing Degree Days 20 (Base 50)    
Moisture  
Dew Point 60 °F    
Average Humidity 71    
Maximum Humidity 93    
Minimum Humidity 41    
Precipitation  
Precipitation 0.01 in - - ()
Sea Level Pressure  
Sea Level Pressure 30.08 in    
Wind  
Wind Speed 2 mph (NW)    
Max Wind Speed 12 mph    
Max Gust Speed 16 mph    
Visibility 9 miles    
Events      
Averages and records for this station are not official NWS values.
T = Trace of Precipitation, MM = Missing Value Source: NWS Daily Summary

Daily Weather History Graph

Daily Weather History Graph

Search for Another Location

Airport or City:

Trip Planner

Search our weather history database for the weather conditions in past years. The results will help you decide how hot, cold, wet, or windy it might be!

Date:

Astronomy

Aug. 20, 2013 Rise Set
Actual Time 6:02 AM EDT 7:40 PM EDT
Civil Twilight 5:32 AM EDT 8:10 PM EDT
Nautical Twilight 4:57 AM EDT 8:45 PM EDT
Astronomical Twilight 4:19 AM EDT 9:23 PM EDT
Moon 7:09 PM EDT (8/20) 5:29 AM EDT (8/20)
Length of Visible Light 14h 37m
Length of Day
13h 38m
Full, 100% of the Moon is Illuminated
Aug 20
Full
Aug 20
Full
Aug 28
Last Quarter
Sep 5
New
Sep 12
First Quarter

Hourly Weather History & Observations

Time (EDT) Temp. Heat Index Dew Point Humidity Pressure Visibility Wind Dir Wind Speed Gust Speed Precip Events Conditions
12:52 AM 64.0 °F - 62.1 °F 93% 30.02 in 9.0 mi Calm Calm - N/A   Clear
1:52 AM 63.0 °F - 60.1 °F 90% 30.02 in 8.0 mi Calm Calm - N/A   Clear
2:52 AM 61.0 °F - 59.0 °F 93% 30.03 in 6.0 mi Calm Calm - N/A   Clear
3:52 AM 60.1 °F - 57.9 °F 93% 30.03 in 8.0 mi Calm Calm - N/A   Clear
4:52 AM 59.0 °F - 57.0 °F 93% 30.04 in 7.0 mi Calm Calm - N/A   Clear
5:52 AM 57.9 °F - 55.9 °F 93% 30.06 in 8.0 mi Calm Calm - 0.01 in   Clear
6:52 AM 59.0 °F - 57.0 °F 93% 30.08 in 7.0 mi Calm Calm - N/A   Clear
7:52 AM 63.0 °F - 60.1 °F 90% 30.10 in 8.0 mi Calm Calm - N/A   Clear
8:52 AM 68.0 °F - 62.1 °F 81% 30.09 in 10.0 mi Calm Calm - N/A   Clear
9:52 AM 75.9 °F - 60.1 °F 58% 30.09 in 10.0 mi West 5.8 mph - N/A   Clear
10:52 AM 78.1 °F - 55.9 °F 46% 30.11 in 10.0 mi NW 9.2 mph - N/A   Clear
11:52 AM 79.0 °F - 57.9 °F 48% 30.10 in 10.0 mi NNW 5.8 mph - N/A   Clear
12:52 PM 81.0 °F 81.3 °F 59.0 °F 47% 30.09 in 10.0 mi West 11.5 mph 16.1 mph N/A   Clear
1:52 PM 82.9 °F 83.2 °F 60.1 °F 46% 30.08 in 10.0 mi West 5.8 mph - N/A   Clear
2:52 PM 84.0 °F 83.5 °F 57.9 °F 41% 30.07 in 10.0 mi WNW 9.2 mph - N/A   Clear
3:52 PM 84.0 °F 83.5 °F 57.9 °F 41% 30.06 in 10.0 mi West 10.4 mph - N/A   Clear
4:52 PM 84.0 °F 83.8 °F 59.0 °F 43% 30.06 in 10.0 mi NNW 6.9 mph - N/A   Clear
5:52 PM 82.0 °F 82.4 °F 60.1 °F 47% 30.08 in 10.0 mi WNW 4.6 mph - N/A   Clear
6:52 PM 79.0 °F - 62.1 °F 56% 30.08 in 10.0 mi Calm Calm - N/A   Clear
7:52 PM 75.9 °F - 62.1 °F 62% 30.09 in 10.0 mi Calm Calm - N/A   Clear
8:52 PM 70.0 °F - 64.9 °F 84% 30.11 in 10.0 mi Calm Calm - N/A   Clear
9:52 PM 68.0 °F - 64.9 °F 90% 30.12 in 8.0 mi Calm Calm - N/A   Clear
10:52 PM 64.9 °F - 63.0 °F 93% 30.13 in 6.0 mi North 3.5 mph - N/A   Clear
11:52 PM 64.9 °F - 62.1 °F 90% 30.13 in 6.0 mi Calm Calm - N/A   Clear